Regional Weather Roundup
Issued by NWS

Home | Current Version | Previous Version | Text Only | Print | Product List | Glossary Off
Versions: 1 2 3 4 5 6 7 8 9 10 11 12 13 14 15 16 17 18 19 20 21 22 23 24 25 26 27 28 29 30 31 32 33 34 35 36 37 38 39 40 41 42 43 44 45 46 47 48 49 50

000
ASUS43 KOAX 282102
RWRNE

WEATHER ROUNDUP FOR NEBRASKA
NATIONAL WEATHER SERVICE OMAHA NE
400 PM CDT TUE JUL 28 2015

NOTES: SATELLITE DATA IS BEING USED TO AUGMENT CLOUD COVER ABOVE
       12000 FEET.
       "FAIR" INDICATES FEW OR NO CLOUDS BELOW 12,000 FEET WITH NO
       SIGNIFICANT WEATHER AND/OR OBSTRUCTIONS TO VISIBILITY.

  * THESE STATIONS DO NOT REPORT WEATHER SUCH AS RAIN...SNOW OR FOG.

NEZ001>004-019>022-054>056-282200-
NEBRASKA PANHANDLE

CITY           SKY/WX    TMP DP  RH WIND       PRES   REMARKS
SCOTTSBLUFF    SUNNY     80  30  16 NW7G17    30.11F
ALLIANCE       SUNNY     80  35  19 NW14G22   30.10S
CHADRON        SUNNY     81  33  17 NW20G31   30.07S
KIMBALL        SUNNY     79  29  16 N13G25    30.14S
SIDNEY         SUNNY     82  32  16 N17G24    30.14S
$$

NEZ057>060-069>072-079>082-282200-
SOUTHWEST NEBRASKA

CITY           SKY/WX    TMP DP  RH WIND       PRES   REMARKS
NORTH PLATTE   SUNNY     84  46  26 N10       30.04R
IMPERIAL       SUNNY     84  41  21 N9G22     30.08S
MCCOOK         SUNNY     87  50  27 N16G22    30.02S
$$

NEZ005>010-023>029-035>040-094-282200-
NORTH CENTRAL NEBRASKA

CITY           SKY/WX    TMP DP  RH WIND       PRES   REMARKS
VALENTINE      SUNNY     83  37  19 W12       30.02S
AINSWORTH      SUNNY     81  45  27 NW5G16    30.03S
BROKEN BOW     MOSUNNY   85  53  33 N9        30.02R
ORD            MOSUNNY   84  53  34 N10       29.99R
$$

NEZ041-046>049-061>064-073>077-083>087-282200-
SOUTH CENTRAL NEBRASKA

CITY           SKY/WX    TMP DP  RH WIND       PRES   REMARKS
GRAND ISLAND   MOSUNNY   80  55  42 N15       29.98R
AURORA         CLOUDY    79  66  64 N17       29.96R
HASTINGS       MOSUNNY   82  61  48 N18       29.98R
KEARNEY *      MOSUNNY   82  54  36 N17       29.99S
$$

NEZ011>018-030>034-042>045-282200-
NORTHEAST NEBRASKA

CITY           SKY/WX    TMP DP  RH WIND       PRES   REMARKS
NORFOLK        CLOUDY    80  56  43 N13G25    29.96R
BLAIR          CLOUDY    83  75  77 NW8       29.89S HX  90
COLUMBUS *     CLOUDY    79  66  65 N7        29.94S
FREMONT        LGT RAIN  76  71  85 NW13      29.92R
TEKAMAH        PTSUNNY   80  75  84 NW15G22   29.90R
$$

NEZ050>053-065>068-078-088>093-282200-
SOUTHEAST NEBRASKA

CITY           SKY/WX    TMP DP  RH WIND       PRES   REMARKS
LINCOLN        PTSUNNY   93  74  53 VRB6      29.88S HX 103
OMAHA EPPLEY   LGT RAIN  88  74  63 W8        29.87R HX  96
FALLS CITY     SUNNY     94  77  57 S13G22    29.84S HX 108
$$

NEZ044-045-051>053-067-282200-
OMAHA AREA

CITY           SKY/WX    TMP DP  RH WIND       PRES   REMARKS
OMAHA EPPLEY   LGT RAIN  88  74  63 W8        29.87R HX  96
BLAIR          CLOUDY    83  75  77 NW8       29.89S HX  90
FREMONT        LGT RAIN  76  71  85 NW13      29.92R
OFFUTT AFB     PTSUNNY   89  77  66 SW5       29.86R HX 101
$$


USA.gov is the U.S. government's official web portal to all federal, state and local government web resources and services.